Simultaneous Nadir Overpasses (SNOs) Predictions

Prediction of SNOs between GOES-17 and NOAA-19 Satellite Orbit:

Table of predicted SNOs for the next 14.0 days since TLE Epoch: 10/15/2023
Index Date Time (GOES-17) GOES-17 Lat,Lon NOAA-19 Lat,Lon Distance(km) Time Diff (sec)
1 10/17/2023 15:56:33 -0.00,-104.71 0.46,-106.83 241.31 80
2 10/18/2023 15:47:07 -0.00,-104.70 -0.22,-103.88 94.75 80
3 10/19/2023 15:35:00 -0.01,-104.70 -0.91,-100.93 430.65 80
4 10/21/2023 04:07:00 0.00,-104.67 -0.91,-108.60 449.02 80
5 10/22/2023 03:54:54 -0.00,-104.66 -0.22,-105.66 113.16 80
6 10/23/2023 03:40:08 -0.00,-104.66 0.47,-102.71 222.73 80
7 10/25/2023 16:00:02 0.01,-104.67 0.62,-107.44 316.55 80
8 10/26/2023 15:50:35 0.00,-104.66 -0.03,-104.49 19.83 80
9 10/27/2023 15:38:28 -0.00,-104.66 -0.74,-101.55 356.19 80
